Time,TemperatureF,DewpointF,PressureIn,WindDirection,WindDirectionDegrees,WindSpeedMPH,WindSpeedGustMPH,Humidity,HourlyPrecipIn,Conditions,Clouds,dailyrainin,SolarRadiationWatts/m^2,SoftwareType,DateUTC
2013-07-26 00:02:00,65.0,39.0,-100.00,NNE,14,3.0,8.0,39,0.00,,,0.00,0.000000,,2013-07-26 04:02:00,
2013-07-26 00:12:00,65.0,39.0,-100.00,NNE,14,3.0,8.0,39,0.00,,,0.00,0.000000,,2013-07-26 04:12:00,
2013-07-26 00:22:00,65.0,39.0,-100.00,NNE,14,3.0,8.0,39,0.00,,,0.00,0.000000,,2013-07-26 04:22:00,
2013-07-26 00:32:00,65.0,39.0,-100.00,NNE,14,3.0,8.0,39,0.00,,,0.00,0.000000,,2013-07-26 04:32:00,
2013-07-26 01:12:00,62.0,40.0,-100.00,East,101,0.0,3.0,44,0.00,,,0.00,0.000000,,2013-07-26 05:12:00,
2013-07-26 01:22:00,62.0,40.0,-100.00,East,101,0.0,3.0,44,0.00,,,0.00,0.000000,,2013-07-26 05:22:00,
2013-07-26 01:32:00,62.0,40.0,-100.00,East,101,0.0,3.0,44,0.00,,,0.00,0.000000,,2013-07-26 05:32:00,
2013-07-26 02:02:00,56.0,39.0,-100.00,ENE,68,1.0,4.0,52,0.00,,,0.00,0.000000,,2013-07-26 06:02:00,
2013-07-26 02:12:00,56.0,39.0,-100.00,ENE,68,1.0,4.0,52,0.00,,,0.00,0.000000,,2013-07-26 06:12:00,
2013-07-26 02:22:00,56.0,39.0,-100.00,ENE,68,1.0,4.0,52,0.00,,,0.00,0.000000,,2013-07-26 06:22:00,
2013-07-26 02:33:00,56.0,39.0,-100.00,ENE,68,1.0,4.0,52,0.00,,,0.00,0.000000,,2013-07-26 06:33:00,
2013-07-26 03:02:00,54.0,40.0,-100.00,WNW,297,1.0,4.0,60,0.00,,,0.00,0.000000,,2013-07-26 07:02:00,
2013-07-26 03:12:00,54.0,40.0,-100.00,WNW,297,1.0,4.0,60,0.00,,,0.00,0.000000,,2013-07-26 07:12:00,
2013-07-26 03:22:00,54.0,40.0,-100.00,WNW,297,1.0,4.0,60,0.00,,,0.00,0.000000,,2013-07-26 07:22:00,
2013-07-26 03:32:00,54.0,40.0,-100.00,WNW,297,1.0,4.0,60,0.00,,,0.00,0.000000,,2013-07-26 07:32:00,
2013-07-26 04:02:00,51.0,38.0,-100.00,NE,48,0.0,3.0,62,0.00,,,0.00,0.000000,,2013-07-26 08:02:00,
2013-07-26 04:12:00,51.0,38.0,-100.00,NE,48,0.0,3.0,62,0.00,,,0.00,0.000000,,2013-07-26 08:12:00,
2013-07-26 04:22:00,51.0,38.0,-100.00,NE,48,0.0,3.0,62,0.00,,,0.00,0.000000,,2013-07-26 08:22:00,
2013-07-26 04:32:00,51.0,38.0,-100.00,NE,48,0.0,3.0,62,0.00,,,0.00,0.000000,,2013-07-26 08:32:00,
2013-07-26 05:02:00,48.0,39.0,-100.00,SSW,199,0.0,2.0,71,0.00,,,0.00,0.000000,,2013-07-26 09:02:00,
2013-07-26 05:12:00,48.0,39.0,-100.00,SSW,199,0.0,2.0,71,0.00,,,0.00,0.000000,,2013-07-26 09:12:00,
2013-07-26 05:22:00,48.0,39.0,-100.00,SSW,199,0.0,2.0,71,0.00,,,0.00,0.000000,,2013-07-26 09:22:00,
2013-07-26 05:32:00,48.0,39.0,-100.00,SSW,199,0.0,2.0,71,0.00,,,0.00,0.000000,,2013-07-26 09:32:00,
2013-07-26 06:02:00,46.0,37.0,-100.00,NNW,328,1.0,2.0,71,0.00,,,0.00,0.000000,,2013-07-26 10:02:00,
2013-07-26 06:12:00,46.0,37.0,-100.00,NNW,328,1.0,2.0,71,0.00,,,0.00,0.000000,,2013-07-26 10:12:00,
2013-07-26 06:22:00,46.0,37.0,-100.00,NNW,328,1.0,2.0,71,0.00,,,0.00,0.000000,,2013-07-26 10:22:00,
2013-07-26 06:32:00,46.0,37.0,-100.00,NNW,328,1.0,2.0,71,0.00,,,0.00,0.000000,,2013-07-26 10:32:00,
2013-07-26 07:02:00,44.0,36.0,-100.00,South,181,1.0,2.0,74,0.00,,,0.00,0.000000,,2013-07-26 11:02:00,
2013-07-26 07:12:00,44.0,36.0,-100.00,South,181,1.0,2.0,74,0.00,,,0.00,0.000000,,2013-07-26 11:12:00,
2013-07-26 07:22:00,44.0,36.0,-100.00,South,181,1.0,2.0,74,0.00,,,0.00,0.000000,,2013-07-26 11:22:00,
2013-07-26 07:32:00,44.0,36.0,-100.00,South,181,1.0,2.0,74,0.00,,,0.00,0.000000,,2013-07-26 11:32:00,
2013-07-26 08:02:00,41.0,34.0,-100.00,ENE,59,0.0,2.0,77,0.00,,,0.00,0.000000,,2013-07-26 12:02:00,
2013-07-26 08:12:00,41.0,34.0,-100.00,ENE,59,0.0,2.0,77,0.00,,,0.00,0.000000,,2013-07-26 12:12:00,
2013-07-26 08:22:00,41.0,34.0,-100.00,ENE,59,0.0,2.0,77,0.00,,,0.00,0.000000,,2013-07-26 12:22:00,
2013-07-26 08:33:00,41.0,34.0,-100.00,ENE,59,0.0,2.0,77,0.00,,,0.00,0.000000,,2013-07-26 12:33:00,
2013-07-26 09:12:00,41.0,35.0,-100.00,SSW,199,0.0,2.0,78,0.00,,,0.00,5.000000,,2013-07-26 13:12:00,
2013-07-26 09:22:00,41.0,35.0,-100.00,SSW,199,0.0,2.0,78,0.00,,,0.00,5.000000,,2013-07-26 13:22:00,
2013-07-26 09:32:00,41.0,35.0,-100.00,SSW,199,0.0,2.0,78,0.00,,,0.00,5.000000,,2013-07-26 13:32:00,
2013-07-26 10:02:00,44.0,37.0,-100.00,SSE,160,0.0,2.0,77,0.00,,,0.00,31.000000,,2013-07-26 14:02:00,
2013-07-26 10:12:00,44.0,37.0,-100.00,SSE,160,0.0,2.0,77,0.00,,,0.00,31.000000,,2013-07-26 14:12:00,
2013-07-26 10:22:00,44.0,37.0,-100.00,SSE,160,0.0,2.0,77,0.00,,,0.00,31.000000,,2013-07-26 14:22:00,
2013-07-26 10:32:00,44.0,37.0,-100.00,SSE,160,0.0,2.0,77,0.00,,,0.00,31.000000,,2013-07-26 14:32:00,
2013-07-26 11:12:00,58.0,42.0,-100.00,SSW,209,2.0,4.0,55,-99.99,,,0.00,230.000000,,2013-07-26 15:12:00,
2013-07-26 11:22:00,58.0,42.0,-100.00,SSW,209,2.0,4.0,55,-99.99,,,0.00,230.000000,,2013-07-26 15:22:00,
2013-07-26 11:32:00,58.0,42.0,-100.00,SSW,209,2.0,4.0,55,-99.99,,,0.00,230.000000,,2013-07-26 15:32:00,
2013-07-26 12:14:00,67.0,44.0,-100.00,SSW,200,2.0,3.0,43,0.00,,,0.00,480.000000,,2013-07-26 16:14:00,
2013-07-26 12:22:00,67.0,44.0,-100.00,SSW,200,2.0,3.0,43,0.00,,,0.00,480.000000,,2013-07-26 16:22:00,
2013-07-26 12:32:00,67.0,44.0,-100.00,SSW,200,2.0,3.0,43,0.00,,,0.00,480.000000,,2013-07-26 16:32:00,
2013-07-26 13:12:00,74.0,43.0,-100.00,South,174,3.0,4.0,33,0.00,,,0.00,677.000000,,2013-07-26 17:12:00,
2013-07-26 13:22:00,74.0,43.0,-100.00,South,174,3.0,4.0,33,0.00,,,0.00,677.000000,,2013-07-26 17:22:00,
2013-07-26 13:33:00,74.0,43.0,-100.00,South,174,3.0,4.0,33,0.00,,,0.00,677.000000,,2013-07-26 17:33:00,
2013-07-26 14:02:00,80.0,37.0,-100.00,NNE,16,2.0,5.0,21,0.00,,,0.00,829.000000,,2013-07-26 18:02:00,
2013-07-26 14:12:00,80.0,37.0,-100.00,NNE,16,2.0,5.0,21,0.00,,,0.00,829.000000,,2013-07-26 18:12:00,
2013-07-26 14:22:00,80.0,37.0,-100.00,NNE,16,2.0,5.0,21,0.00,,,0.00,829.000000,,2013-07-26 18:22:00,
2013-07-26 14:32:00,80.0,37.0,-100.00,NNE,16,2.0,5.0,21,0.00,,,0.00,829.000000,,2013-07-26 18:32:00,
2013-07-26 15:22:00,85.0,37.0,-100.00,SW,225,3.0,11.0,18,0.00,,,0.00,966.000000,,2013-07-26 19:22:00,
2013-07-26 15:32:00,85.0,37.0,-100.00,SW,225,3.0,11.0,18,0.00,,,0.00,966.000000,,2013-07-26 19:32:00,
2013-07-26 16:12:00,87.0,34.0,-100.00,SW,230,5.0,15.0,15,0.00,,,-99.99,1070.000000,,2013-07-26 20:12:00,
2013-07-26 16:22:00,87.0,34.0,-100.00,SW,230,5.0,15.0,15,0.00,,,-99.99,1070.000000,,2013-07-26 20:22:00,
2013-07-26 16:32:00,87.0,34.0,-100.00,SW,230,5.0,15.0,15,0.00,,,-99.99,1070.000000,,2013-07-26 20:32:00,
2013-07-26 18:32:00,92.0,30.0,-100.00,SW,216,5.0,12.0,11,0.00,,,0.00,1031.000000,,2013-07-26 22:32:00,
2013-07-26 19:02:00,90.0,36.0,-100.00,SSW,204,5.0,16.0,15,-99.99,,,0.00,861.000000,,2013-07-26 23:02:00,
2013-07-26 19:12:00,90.0,36.0,-100.00,SSW,204,5.0,16.0,15,-99.99,,,0.00,861.000000,,2013-07-26 23:12:00,
2013-07-26 19:22:00,90.0,36.0,-100.00,SSW,204,5.0,16.0,15,-99.99,,,0.00,861.000000,,2013-07-26 23:22:00,
2013-07-26 19:32:00,90.0,36.0,-100.00,SSW,204,5.0,16.0,15,-99.99,,,0.00,861.000000,,2013-07-26 23:32:00,
2013-07-26 20:12:00,86.0,36.0,-100.00,SSW,213,5.0,17.0,17,0.00,,,0.00,540.000000,,2013-07-27 00:12:00,
2013-07-26 20:22:00,86.0,36.0,-100.00,SSW,213,5.0,17.0,17,0.00,,,0.00,540.000000,,2013-07-27 00:22:00,
2013-07-26 20:32:00,86.0,36.0,-100.00,SSW,213,5.0,17.0,17,0.00,,,0.00,540.000000,,2013-07-27 00:32:00,
2013-07-26 21:02:00,81.0,35.0,-100.00,SW,224,4.0,12.0,19,0.00,,,0.00,136.000000,,2013-07-27 01:02:00,
2013-07-26 21:12:00,81.0,35.0,-100.00,SW,224,4.0,12.0,19,0.00,,,0.00,136.000000,,2013-07-27 01:12:00,
2013-07-26 21:22:00,81.0,35.0,-100.00,SW,224,4.0,12.0,19,0.00,,,0.00,136.000000,,2013-07-27 01:22:00,
2013-07-26 21:32:00,81.0,35.0,-100.00,SW,224,4.0,12.0,19,0.00,,,0.00,136.000000,,2013-07-27 01:32:00,
2013-07-26 22:12:00,81.0,36.0,-100.00,SW,234,5.0,12.0,20,0.00,,,0.00,67.000000,,2013-07-27 02:12:00,
2013-07-26 22:22:00,81.0,36.0,-100.00,SW,234,5.0,12.0,20,0.00,,,0.00,67.000000,,2013-07-27 02:22:00,
2013-07-26 22:32:00,81.0,36.0,-100.00,SW,234,5.0,12.0,20,0.00,,,0.00,67.000000,,2013-07-27 02:32:00,
2013-07-26 23:02:00,76.0,38.0,-100.00,SW,225,4.0,9.0,25,0.00,,,0.00,16.000000,,2013-07-27 03:02:00,
2013-07-26 23:12:00,76.0,38.0,-100.00,SW,225,4.0,9.0,25,0.00,,,0.00,16.000000,,2013-07-27 03:12:00,
2013-07-26 23:22:00,76.0,38.0,-100.00,SW,225,4.0,9.0,25,0.00,,,0.00,16.000000,,2013-07-27 03:22:00,
2013-07-26 23:32:00,76.0,38.0,-100.00,SW,225,4.0,9.0,25,0.00,,,0.00,16.000000,,2013-07-27 03:32:00,